Location: ??
(34.9170°N, 135.5016°E)
Time: 00:04:05
(UTC+00:00)

RS-15 - Pass Details

Date: 28 April 2021
Orbit: 1888 x 2157 km, 64.8° (Epoch: 12 May)

Event Time Altitude Azimuth Distance (km) Brightness Sun altitude
Rises 12:24:50 0° 303° (WNW) 5,402 11.5 -29.2°
Reaches altitude 10° 12:31:30 10° 331° (NNW) 4,469 10.8 -30.1°
Maximum altitude 12:36:04 13° 355° (N) 4,290 10.4 -30.7°
Drops below altitude 10° 12:40:43 10° 19° (NNE) 4,558 10.3 -31.3°
Sets 12:47:44 0° 47° (NE) 5,619 10.5 -32.2°
